Torna al catalogo

COSMOS 1275 DEB

AttivoPO
NORAD 12705·DEBRIS·🇷🇺 Russia

Lanciato Jun 4, 1981 da Plesetsk Cosmodrome

Loading…

Prossimi Passaggi (prossime 24 ore)

TLE

AggiornatoSource: Space-Track

Epoca: Sep 14, 2026, 03:45 UTC

1 12705U 81053AZ  26257.15682984  .00000987  00000-0  59767-3 0  9998
2 12705  82.8890 155.6761 0026839 308.8165 213.9289 14.05371125286539

Traccia COSMOS 1275 DEB in tempo reale con AllMySat

Download on the App Store